EW0415 Weather Reports


time (UTC)temp
C
wind
direction
speed
KPH
gust
KPH
rain 1hr
cm
rain 24hr
cm
rain mn
cm
humidity
%
barometer
mb
20260505025008 17 288 3.2 12.9 0.00 0.18 0.08 68 1025.2
20260505024528 16 290 3.2 12.9 0.00 0.18 0.08 68 1025.4
20260505024010 16 290 4.8 11.3 0.00 0.18 0.08 68 1025.3
20260505023508 16 0 3.2 11.3 0.00 0.18 0.08 68 1025.3
20260505023028 16 295 3.2 12.9 0.00 0.18 0.08 70 1025.3
20260505022509 16 0 3.2 12.9 0.00 0.18 0.08 70 1025.4
20260505022010 16 0 1.6 11.3 0.00 0.18 0.08 72 1025.5
20260505021529 16 280 4.8 11.3 0.00 0.18 0.08 73 1025.5
20260505021009 16 271 1.6 8.0 0.00 0.18 0.08 75 1025.5
20260505020508 16 360 0.0 8.0 0.00 0.18 0.08 76 1025.5
20260505020027 16 360 0.0 6.4 0.00 0.18 0.08 77 1025.5
20260505015513 16 0 1.6 6.4 0.00 0.18 0.08 78 1025.6
20260505015012 15 0 1.6 8.0 0.00 0.18 0.08 80 1025.6
20260505014525 15 0 0.0 8.0 0.00 0.18 0.08 81 1025.6
20260505014017 15 360 0.0 4.8 0.00 0.18 0.08 82 1025.6
20260505013509 15 360 1.6 4.8 0.00 0.18 0.08 84 1025.6
20260505013029 15 360 0.0 4.8 0.00 0.18 0.08 84 1025.6
20260505012508 15 286 1.6 6.4 0.00 0.18 0.08 85 1025.7
20260505012012 15 0 0.0 6.4 0.00 0.18 0.08 86 1025.6
20260505011527 14 360 1.6 8.0 0.00 0.18 0.08 87 1025.5
20260505011009 14 0 0.0 9.7 0.00 0.18 0.08 88 1025.5
20260505010512 14 360 3.2 9.7 0.00 0.18 0.08 88 1025.3
20260505010030 14 0 0.0 8.0 0.00 0.18 0.08 88 1025.3
20260505005509 15 279 0.0 9.7 0.00 0.18 0.08 89 1025.3
20260505005008 15 279 0.0 9.7 0.00 0.18 0.08 89 1025.2
20260505004530 15 274 0.0 4.8 0.00 0.18 0.08 90 1025.2
20260505004008 15 0 0.0 0.0 0.00 0.18 0.08 90 1025.2
20260505003511 14 0 0.0 0.0 0.00 0.18 0.08 90 1025.1
20260505003029 14 0 0.0 0.0 0.00 0.18 0.08 90 1025.0
20260505002511 14 0 0.0 0.0 0.00 0.20 0.08 90 1025.1
20260505002011 14 0 0.0 0.0 0.00 0.20 0.08 90 1025.0
20260505001529 14 0 0.0 0.0 0.00 0.20 0.08 90 1025.0
20260505001008 14 0 0.0 0.0 0.00 0.20 0.08 90 1024.9
20260505000507 14 0 0.0 0.0 0.00 0.20 0.08 90 1024.9
20260505000026 14 0 0.0 0.0 0.00 0.20 0.08 90 1024.9
20260504235508 14 0 0.0 0.0 0.00 0.20 0.08 90 1024.9
20260504235009 14 0 0.0 0.0 0.00 0.20 0.08 90 1024.8
20260504234534 14 0 0.0 0.0 0.00 0.20 0.08 90 1025.0
20260504234008 14 0 0.0 0.0 0.00 0.20 0.08 90 1024.8
20260504233508 13 0 0.0 0.0 0.00 0.20 0.08 90 1024.9
20260504233028 13 0 0.0 0.0 0.00 0.20 0.08 90 1024.9
20260504232509 13 0 0.0 0.0 0.00 0.20 0.08 89 1025.0
20260504232008 13 0 0.0 0.0 0.00 0.20 0.08 90 1024.8
20260504231527 13 0 0.0 0.0 0.00 0.20 0.08 90 1024.8
20260504231008 13 0 0.0 0.0 0.00 0.20 0.08 89 1024.7
20260504230507 13 0 0.0 0.0 0.00 0.20 0.08 89 1024.7
20260504230029 13 0 0.0 0.0 0.00 0.20 0.08 89 1024.6
20260504225516 13 0 0.0 0.0 0.00 0.20 0.08 89 1024.5
20260504225008 13 0 0.0 0.0 0.00 0.20 0.08 89 1024.5
20260504224528 13 0 0.0 0.0 0.00 0.20 0.08 89 1024.5
20260504224008 13 0 0.0 0.0 0.00 0.20 0.08 89 1024.4
20260504223508 13 0 0.0 0.0 0.00 0.20 0.08 89 1024.3
20260504223030 13 0 0.0 0.0 0.00 0.20 0.08 89 1024.4
20260504222510 12 0 0.0 0.0 0.00 0.46 0.08 89 1024.1
20260504222010 12 0 0.0 0.0 0.00 0.46 0.08 89 1024.2
20260504221528 12 0 0.0 0.0 0.00 0.46 0.08 89 1024.1
20260504221011 12 0 0.0 0.0 0.00 0.46 0.08 89 1024.0
20260504220508 12 0 0.0 0.0 0.00 0.46 0.08 89 1023.9
20260504220030 12 0 0.0 0.0 0.00 0.46 0.08 89 1024.0
20260504215510 12 0 0.0 0.0 0.00 0.46 0.08 88 1023.8
20260504215008 12 0 0.0 0.0 0.00 0.46 0.08 88 1023.8
20260504214528 12 0 0.0 0.0 0.00 0.46 0.08 88 1023.8
20260504214007 12 0 0.0 0.0 0.00 0.46 0.08 88 1023.8
20260504213511 12 0 0.0 0.0 0.00 0.46 0.08 88 1023.8
20260504213026 12 0 0.0 0.0 0.00 0.46 0.08 88 1023.8
20260504212508 11 0 0.0 0.0 0.00 0.56 0.08 88 1023.7
20260504212009 11 0 0.0 0.0 0.00 0.56 0.08 88 1023.6
20260504211527 11 0 0.0 0.0 0.00 0.53 0.08 88 1023.6
20260504211011 11 0 0.0 0.0 0.00 0.53 0.08 88 1023.5
20260504210509 11 0 0.0 0.0 0.00 0.53 0.08 88 1023.4
20260504210032 11 0 0.0 0.0 0.00 0.53 0.08 88 1023.3
20260504205512 11 0 0.0 0.0 0.00 0.53 0.08 88 1023.2
20260504205011 11 0 0.0 0.0 0.00 0.53 0.08 88 1023.1
20260504204527 11 0 0.0 0.0 0.00 0.53 0.08 88 1023.2
20260504204007 11 0 0.0 0.0 0.00 0.53 0.08 87 1023.1
20260504203513 11 0 0.0 0.0 0.00 0.53 0.08 87 1023.1
20260504203039 11 0 0.0 0.0 0.00 0.53 0.08 87 1023.0
20260504202511 11 0 0.0 0.0 0.00 0.53 0.08 87 1023.0
20260504202008 11 0 0.0 0.0 0.00 0.53 0.08 87 1023.0
20260504201531 11 0 0.0 0.0 0.00 0.53 0.08 87 1022.9
20260504201018 11 0 0.0 0.0 0.00 0.53 0.08 87 1023.0
20260504200510 11 0 0.0 0.0 0.00 0.53 0.08 87 1022.9
20260504200026 11 0 0.0 0.0 0.00 0.53 0.08 87 1022.9
20260504195509 11 0 0.0 0.0 0.00 0.53 0.08 87 1022.9
20260504195013 11 0 0.0 0.0 0.00 0.53 0.08 87 1022.8
20260504194533 11 0 0.0 0.0 0.00 0.53 0.08 87 1022.8
20260504194010 11 0 0.0 0.0 0.00 0.53 0.08 87 1022.7
20260504193514 11 0 0.0 0.0 0.00 0.53 0.08 87 1022.7
20260504193030 11 0 0.0 0.0 0.00 0.53 0.08 87 1022.7
20260504192509 11 0 0.0 0.0 0.00 0.74 0.08 87 1022.7
20260504192010 11 0 0.0 0.0 0.00 0.71 0.05 87 1022.7
20260504191529 11 0 0.0 0.0 0.00 0.71 0.05 87 1022.5
20260504191012 12 0 0.0 0.0 0.00 0.71 0.05 87 1022.5
20260504190508 12 0 0.0 0.0 0.00 0.71 0.05 87 1022.4
20260504190030 12 0 0.0 0.0 0.00 0.71 0.05 87 1022.4
20260504185509 12 0 0.0 0.0 0.00 0.71 0.05 87 1022.4
20260504185009 12 0 0.0 0.0 0.00 0.71 0.05 87 1022.4
20260504184530 12 0 0.0 0.0 0.00 0.71 0.05 87 1022.4
20260504184009 12 0 0.0 0.0 0.00 0.71 0.05 87 1022.4
20260504183512 12 0 0.0 0.0 0.00 0.71 0.05 87 1022.4
20260504183031 12 0 0.0 0.0 0.00 0.71 0.05 87 1022.3
20260504182519 12 0 0.0 0.0 0.00 0.71 0.05 87 1022.3
20260504182017 12 0 0.0 0.0 0.00 0.71 0.05 87 1022.1
20260504181527 12 0 0.0 0.0 0.00 0.71 0.05 87 1022.1
20260504181009 12 0 0.0 0.0 0.00 0.71 0.05 87 1022.1
20260504180511 12 0 0.0 0.0 0.00 0.71 0.05 87 1022.1
20260504180031 12 0 0.0 0.0 0.00 0.71 0.05 87 1022.1
20260504175508 12 0 0.0 0.0 0.00 0.71 0.05 87 1022.1
20260504175009 12 0 0.0 0.0 0.00 0.71 0.05 87 1022.1
20260504174526 12 0 0.0 0.0 0.00 0.71 0.05 87 1022.1
20260504174008 12 0 0.0 0.0 0.00 0.71 0.05 87 1022.1
20260504173510 12 0 0.0 0.0 0.03 0.71 0.05 87 1022.1
20260504173026 12 0 0.0 0.0 0.03 0.71 0.05 87 1022.0
20260504172508 13 0 0.0 0.0 0.03 0.74 0.05 87 1022.1
20260504172010 12 0 0.0 0.0 0.03 0.74 0.05 87 1022.3
20260504171528 12 0 0.0 0.0 0.03 0.74 0.05 86 1022.3
20260504171014 12 0 0.0 0.0 0.03 0.74 0.05 87 1022.3
20260504170508 12 0 0.0 0.0 0.03 0.74 0.05 87 1022.4
20260504151017 12 0 0.0 0.0 0.00 0.84 0.00 84 1022.1
20260504150512 12 0 0.0 0.0 0.00 0.84 0.00 83 1022.1
20260504141008 12 0 0.0 0.0 0.00 0.84 0.84 82 1021.8
20260504140516 12 0 0.0 0.0 0.00 0.84 0.84 82 1021.7
20260504130510 13 0 0.0 0.0 0.00 0.84 0.84 81 1021.6
20260504110511 15 0 0.0 4.8 0.08 0.86 0.84 74 1020.9
20260504100512 16 0 0.0 0.0 0.00 0.84 0.74 72 1019.7
20260504081531 16 284 3.2 14.5 0.00 0.84 0.74 69 1018.1
20260504081010 16 0 3.2 12.9 0.00 0.84 0.74 68 1018.2
20260504080511 17 288 3.2 14.5 0.00 0.84 0.74 68 1018.1
20260504050514 19 296 4.8 19.3 0.00 0.84 0.74 61 1016.4
20260504045509 19 229 4.8 19.3 0.00 0.84 0.74 61 1016.3
20260504045011 19 225 11.3 19.3 0.00 0.84 0.74 60 1016.2
20260504044532 20 277 6.4 20.9 0.00 0.84 0.74 59 1016.2
20260504044008 20 144 6.4 20.9 0.00 0.84 0.74 59 1016.3
20260504043508 20 273 6.4 17.7 0.00 0.84 0.74 59 1016.2
20260504043030 20 268 4.8 17.7 0.00 0.84 0.74 61 1016.2
20260504042509 19 284 6.4 19.3 0.00 0.84 0.74 62 1016.1
20260504042011 19 217 6.4 19.3 0.00 0.84 0.74 63 1016.3
20260504041527 19 252 6.4 19.3 0.00 0.84 0.74 64 1016.3
20260504041010 18 273 4.8 19.3 0.00 0.84 0.74 64 1016.1
20260504040510 18 297 6.4 19.3 0.00 0.84 0.74 63 1016.3
20260504040029 18 220 3.2 19.3 0.00 0.84 0.74 65 1016.4
20260504035512 18 272 3.2 17.7 0.00 0.84 0.74 64 1016.3
20260504035013 18 266 8.0 17.7 0.00 0.84 0.74 63 1016.3
20260504034528 19 274 6.4 19.3 0.00 0.84 0.74 63 1016.3
20260504034017 19 256 6.4 19.3 0.00 0.84 0.74 63 1016.3
20260504033508 18 260 4.8 19.3 0.00 0.84 0.74 63 1016.4
20260504033026 18 297 8.0 19.3 0.00 0.84 0.74 64 1016.2
20260504032512 18 269 8.0 22.5 0.00 0.84 0.74 66 1016.3
20260504032011 18 261 9.7 22.5 0.00 0.84 0.74 65 1016.3
20260504031530 18 290 8.0 19.3 0.00 0.84 0.74 67 1016.3
20260504031012 18 265 6.4 19.3 0.00 0.84 0.74 68 1016.4
20260504030509 18 283 8.0 19.3 0.00 0.84 0.74 67 1016.4
20260504030028 18 273 6.4 17.7 0.00 0.84 0.74 68 1016.5
20260504025510 18 267 4.8 19.3 0.00 0.84 0.74 68 1016.6